Location: Muenchen
(48.1800°N, 11.5800°E)
Time: 19:06:00
(UTC+01:00)

ISS - Visible Passes

Search period start: 27 February 2017 00:00
Search period end: 09 March 2017 00:00
Orbit: 399 x 408 km, 51.6° (Epoch: 28 February)

Date Brightness Start Highest point End Pass type
(mag) Time Alt. Az. Time Alt. Az. Time Alt. Az.
01 Mar 0.0 05:57:40 10° SE 05:58:22 10° SE 05:59:04 10° ESE visible
03 Mar -0.9 05:46:46 10° S 05:49:19 21° SE 05:51:53 10° E visible
04 Mar -0.5 04:55:27 10° SSE 04:56:57 13° SE 04:58:27 10° ESE visible
05 Mar -2.2 05:37:27 11° SW 05:40:21 39° SSE 05:43:28 10° ENE visible
06 Mar -1.5 04:47:11 23° SSE 04:47:52 24° SE 04:50:36 10° E visible
07 Mar -0.2 03:56:48 12° ESE 03:56:48 12° ESE 03:57:23 10° E visible
07 Mar -3.2 05:29:26 22° WSW 05:31:26 74° SSE 05:34:44 10° ENE visible
08 Mar -2.6 04:38:57 46° SE 04:38:57 46° SE 04:42:01 10° ENE visible
